Location: Unspecified
(45.8566°N, 0.0000°E)
Time: 01:04:05
(UTC+00:00)

N. Korean satellite - Visible Passes

Search period start: 12 November 2019 00:00
Search period end: 22 November 2019 00:00
Orbit: 456 x 506 km, 97.2° (Epoch: 10 November)

Date Brightness Start Highest point End Pass type
(mag) Time Alt. Az. Time Alt. Az. Time Alt. Az.
12 Nov 6.7 05:59:55 10° NNE 06:03:40 88° ESE 06:07:22 10° SSW visible
12 Nov 10.1 18:12:48 10° WSW 18:14:36 13° W 18:16:25 10° WNW visible
13 Nov 8.0 05:34:41 10° NNE 05:38:16 42° E 05:41:48 10° S visible
13 Nov 9.1 17:46:00 10° SSW 17:49:01 25° W 17:52:06 10° NW visible
14 Nov 9.4 05:09:48 10° NE 05:12:46 22° E 05:15:41 10° SE visible
14 Nov 7.6 17:20:01 10° S 17:23:32 51° W 17:27:07 10° NNW visible
15 Nov 10.2 04:45:51 10° ENE 04:47:10 12° E 04:48:28 10° ESE visible
15 Nov 6.7 06:17:14 10° N 06:20:54 56° WNW 06:24:31 10° SSW visible
16 Nov 6.9 05:51:50 10° NNE 05:55:33 71° E 05:59:13 10° S visible
16 Nov 9.9 18:04:01 10° SW 18:06:23 16° W 18:08:47 10° NW visible
17 Nov 8.5 05:26:40 10° NNE 05:30:07 34° E 05:33:29 10° SSE visible
17 Nov 8.7 17:37:34 10° SSW 17:40:50 31° W 17:44:10 10° NNW visible
18 Nov 9.7 05:01:58 10° NE 05:04:34 18° E 05:07:08 10° SE visible
18 Nov 7.1 17:11:46 10° S 17:15:22 65° W 17:19:03 10° NNW visible
19 Nov 6.6 06:09:04 10° N 06:12:47 70° WNW 06:16:25 10° SSW visible
19 Nov 10.3 18:23:02 10° W 18:23:47 10° W 18:24:32 10° WNW visible
20 Nov 7.4 05:43:43 10° NNE 05:47:24 56° E 05:50:59 10° S visible
20 Nov 9.5 17:55:23 10° SW 17:58:09 20° W 18:00:58 10° NW visible
21 Nov 8.9 05:18:40 10° NE 05:21:54 27° E 05:25:04 10° SSE visible
21 Nov 8.2 17:29:10 10° SSW 17:32:37 39° W 17:36:08 10° NNW visible
